404P/Bressi (2023)

Japanese version
Home page
Updated on September 18, 2021

---------------------------------------------------------------------

* Profile

Designation 404P/2020 M6
Recovery Date June 17, 2020
Magnitude 22.1 mag
Recoverer Pan-STARRS 1 telescope (Haleakala)

* Pictures

* Orbital Elements

Epoch 2023 Oct. 23.0 TT = JDT 2460240.5
T 2023 Nov. 4.14791 TT                                  Rudenko
q   4.1325830            (2000.0)            P               Q
n   0.09560895     Peri.  169.36927     +0.34902714     -0.92201659
a   4.7366397      Node   260.04094     +0.84682044     +0.38687972
e   0.1275285      Incl.    9.79308     +0.40134175     -0.01447355
P  10.3
From 197 observations 2011 Oct. 24-2021 June 20, mean residual 0".5.

* Magnitudes Graph

        m1 = 3.0 + 5 log d + 20 log r

---------------------------------------------------------------------

The orbital elements are published on M.P.E.C. 2021-N06.
The magnitudes graphs are made with Comet for Windows.

---------------------------------------------------------------------

Copyright(C) Seiichi Yoshida (comet@aerith.net). All rights reserved.